Weather History for KFLL - November, 2010

Change the Weather History Date:

Tuesday, November 30, 2010

  Actual Average Record
Temperature  
Mean Temperature 79 °F 73 °F  
Max Temperature 83 °F 80 °F 89 °F (1977)
Min Temperature 74 °F 67 °F 40 °F (1959)
Degree Days  
Heating Degree Days 0 0  
Month to date heating degree days 7 0  
Since 1 July heating degree days 7 2  
Cooling Degree Days 14 9  
Month to date cooling degree days 255 319  
Year to date cooling degree days 4178 4513  
Growing Degree Days 28 (Base 50)    
Moisture  
Dew Point 70 °F    
Average Humidity 76    
Maximum Humidity 87    
Minimum Humidity 65    
Precipitation  
Precipitation T in 0.10 in 6.23 in (1925)
Month to date precipitation 0.96 3.24  
Year to date precipitation 58.39 59.72  
Snow  
Snow 0.00 in - - ()
Month to date snowfall 0.0  
Since 1 July snowfall 0.0  
Since 1 September snowfall 0.0  
Snow Depth 0.00 in    
Sea Level Pressure  
Sea Level Pressure 30.06 in    
Wind  
Wind Speed 11 mph (SE)    
Max Wind Speed 18 mph    
Max Gust Speed 24 mph    
Visibility 10 miles    
Events      
T = Trace of Precipitation, MM = Missing Value Source: NWS Daily Summary

Daily Weather History Graph

Daily Weather History Graph

Search for Another Location

Airport or City:

Trip Planner

Search our weather history database for the weather conditions in past years. The results will help you decide how hot, cold, wet, or windy it might be!

Date:

Astronomy

Nov. 30, 2010 Rise Set
Actual Time 6:50 AM EST 5:28 PM EST
Civil Twilight 6:25 AM EST 5:53 PM EST
Nautical Twilight 5:56 AM EST 6:21 PM EST
Astronomical Twilight 5:28 AM EST 6:49 PM EST
Moon 1:31 AM EST (11/30) 1:35 PM EST (11/30)
Length of Visible Light 11h 28m
Length of Day
10h 38m
Waning Crescent, 29% of the Moon is Illuminated
Nov 30
Waning Crescent
Dec 5
New
Dec 13
First Quarter
Dec 21
Full
Dec 27
Last Quarter

Hourly Weather History & Observations

Time (EST) Temp. Heat Index Dew Point Humidity Pressure Visibility Wind Dir Wind Speed Gust Speed Precip Events Conditions
12:53 AM 75.9 °F - 69.1 °F 79% 30.07 in 10.0 mi ESE 12.7 mph - N/A   Scattered Clouds
1:53 AM 75.9 °F - 69.1 °F 79% 30.06 in 10.0 mi SE 11.5 mph - N/A   Scattered Clouds
2:53 AM 75.9 °F - 69.1 °F 79% 30.05 in 10.0 mi ESE 9.2 mph - 0.00 in   Mostly Cloudy
3:53 AM 77.0 °F - 69.1 °F 76% 30.04 in 10.0 mi ESE 12.7 mph - N/A   Scattered Clouds
4:53 AM 75.9 °F - 68.0 °F 76% 30.04 in 10.0 mi SE 13.8 mph - N/A   Scattered Clouds
5:53 AM 75.9 °F - 69.1 °F 79% 30.06 in 10.0 mi SE 11.5 mph - N/A   Scattered Clouds
6:53 AM 75.9 °F - 69.1 °F 79% 30.07 in 10.0 mi SE 8.1 mph - N/A   Partly Cloudy
7:53 AM 77.2 °F - 69.1 °F 76% 30.08 in 10.0 mi SE 8.1 mph - N/A   Scattered Clouds
8:53 AM 79.0 °F - 69.1 °F 72% 30.09 in 10.0 mi SE 12.7 mph - N/A   Partly Cloudy
9:53 AM 80.1 °F 82.9 °F 69.1 °F 69% 30.11 in 10.0 mi SE 16.1 mph - 0.05 in   Scattered Clouds
10:53 AM 82.0 °F 85.9 °F 70.0 °F 67% 30.10 in 10.0 mi SE 15.0 mph - 0.49 in   Scattered Clouds
11:53 AM 82.0 °F 85.5 °F 69.1 °F 65% 30.08 in 10.0 mi ESE 15.0 mph - 0.00 in   Partly Cloudy
12:25 PM 78.8 °F - 69.8 °F 74% 30.07 in 10.0 mi SSE 11.5 mph - N/A   Mostly Cloudy
12:53 PM 81.0 °F 84.1 °F 69.1 °F 67% 30.05 in 10.0 mi SSE 12.7 mph - N/A   Mostly Cloudy
1:00 PM 80.6 °F 83.9 °F 69.8 °F 70% 30.05 in 10.0 mi SSE 11.5 mph - N/A   Scattered Clouds
1:53 PM 82.0 °F 85.5 °F 69.1 °F 65% 30.04 in 10.0 mi SE 13.8 mph 19.6 mph N/A   Scattered Clouds
2:53 PM 81.0 °F 84.1 °F 69.1 °F 67% 30.03 in 10.0 mi SE 15.0 mph - N/A   Mostly Cloudy
3:53 PM 80.1 °F 82.7 °F 68.0 °F 67% 30.02 in 10.0 mi SSE 12.7 mph - N/A   Scattered Clouds
4:53 PM 78.1 °F - 69.1 °F 74% 30.03 in 10.0 mi SE 10.4 mph - N/A   Partly Cloudy
5:53 PM 77.0 °F - 69.1 °F 76% 30.04 in 10.0 mi SE 6.9 mph - N/A   Scattered Clouds
6:53 PM 78.1 °F - 69.1 °F 74% 30.04 in 10.0 mi SE 8.1 mph - N/A   Mostly Cloudy
7:46 PM 77.0 °F - 71.6 °F 83% 30.06 in 10.0 mi SSE 8.1 mph - N/A   Mostly Cloudy
7:53 PM 77.0 °F - 71.1 °F 82% 30.06 in 10.0 mi SE 8.1 mph - N/A   Mostly Cloudy
8:27 PM 77.0 °F - 71.6 °F 83% 30.06 in 10.0 mi SSE 4.6 mph - N/A   Mostly Cloudy
8:30 PM 77.0 °F - 71.6 °F 83% 30.06 in 10.0 mi SSE 9.2 mph - N/A   Mostly Cloudy
8:38 PM 77.0 °F - 71.6 °F 83% 30.07 in 10.0 mi SE 10.4 mph - N/A   Mostly Cloudy
8:48 PM 75.2 °F - 71.6 °F 89% 30.07 in 10.0 mi SSE 5.8 mph - N/A   Mostly Cloudy
8:53 PM 75.9 °F - 72.0 °F 87% 30.07 in 10.0 mi SSE 8.1 mph - N/A   Mostly Cloudy
9:53 PM 75.9 °F - 71.1 °F 85% 30.07 in 10.0 mi South 5.8 mph - N/A   Scattered Clouds
10:53 PM 75.9 °F - 69.1 °F 79% 30.08 in 10.0 mi South 3.5 mph - N/A   Partly Cloudy
11:53 PM 75.0 °F - 69.1 °F 82% 30.06 in 10.0 mi South 4.6 mph - N/A   Partly Cloudy